STARLINK-35375 (66065 NORAD) Tracking and Keplerian Element Data

This shows tracking and keplerian element data for the satellite.

Feedback or suggestion? Click here.




ElementValue
Catalog66065
NameSTARLINK-35375
Epoch Orbit1073
Epoch Day354.11791311
Epoch Year2025
RAAN255.2297
Inclination53.1607
Eccentricity0.0001573
Argument of Perigee80.6403
Mean Anonmoly279.4775
Mean Motion15.30199377
Decay Rate6.311E-05
L11 66065U 25235H 25354.11791311 .00006311 00000+0 22502-3 0 9997
L22 66065 53.1607 255.2297 0001573 80.6403 279.4775 15.30199377 10733



Live tracking and technical data element details for STARLINK-35375 (NORAD 66065). STARLINK-35375 can be tracked NOW for your location showing map with azimuth and elevation plus other details from your city location.







IsCatalogInMostPopularTable: catalog: 66065, numindb: 9
Update: records affected: 1



GetName: 66065 STARLINK-35375

Hit Count: updated at: Thu, 16 Apr 2026 05:31:13 GMT